QPF
0.01 0.01 0.02 0.01 0.01 0.00 0.00 0.00 0.00 0.00 0.00 0.00 0.00 0.00 0.00 0.00 0.00 0.00 0.00 0.00 0.00 0.01 0.01 0.01 0.02 0.02 0.02 0.02 0.02 0.02 0.02 0.02 0.03 0.03 0.03 0.04 0.04 0.05 0.04 0.03 0.02 0.02 0.05
0.00 0.01 0.02 0.01 0.01 0.00 0.00 0.00 0.00 0.00 0.00 0.00 0.00 0.00 0.00 0.00 0.00 0.00 0.00 0.00 0.00 0.01 0.01 0.01 0.01 0.01 0.01 0.01 0.01 0.01 0.02 0.02 0.03 0.05 0.05 0.05 0.06 0.05 0.03 0.02 0.01 0.03 0.04
0.00 0.01 0.01 0.01 0.01 0.01 0.00 0.00 0.00 0.00 0.00 0.00 0.00 0.00 0.00 0.00 0.00 0.00 0.00 0.01 0.01 0.01 0.01 0.01 0.01 0.00 0.00 0.01 0.01 0.01 0.01 0.03 0.05 0.04 0.04 0.02 0.04 0.04 0.02 0.02 0.02 0.03 0.04
0.00 0.00 0.01 0.01 0.01 0.01 0.00 0.00 0.00 0.00 0.00 0.00 0.00 0.00 0.00 0.00 0.00 0.01 0.01 0.01 0.01 0.01 0.01 0.01 0.01 0.01 0.01 0.01 0.01 0.02 0.02 0.03 0.05 0.02 0.01 0.01 0.01 0.03 0.03 0.02 0.02 0.02 0.02
0.00 0.01 0.01 0.01 0.01 0.01 0.00 0.00 0.00 0.00 0.00 0.00 0.00 0.00 0.00 0.00 0.01 0.01 0.00 0.00 0.01 0.01 0.01 0.01 0.01 0.01 0.01 0.01 0.02 0.03 0.03 0.04 0.04 0.01 0.00 0.00 0.01 0.03 0.03 0.02 0.01 0.01 0.01
0.00 0.01 0.01 0.01 0.01 0.01 0.00 0.00 0.00 0.00 0.00 0.00 0.00 0.00 0.00 0.00 0.01 0.00 0.00 0.01 0.00 0.00 0.00 0.00 0.01 0.01 0.02 0.02 0.03 0.04 0.05 0.06 0.02 0.00 0.00 0.01 0.01 0.02 0.02 0.01 0.01 0.01 0.01
0.00 0.00 0.01 0.01 0.01 0.01 0.00 0.00 0.00 0.00 0.00 0.00 0.00 0.00 0.00 0.00 0.00 0.00 0.00 0.00 0.00 0.00 0.01 0.01 0.01 0.01 0.02 0.02 0.03 0.05 0.07 0.06 0.01 0.01 0.00 0.00 0.01 0.01 0.01 0.01 0.01 0.01 0.01
0.01 0.01 0.01 0.01 0.01 0.01 0.00 0.00 0.00 0.00 0.00 0.00 0.00 0.00 0.00 0.00 0.00 0.00 0.00 0.00 0.01 0.01 0.01 0.01 0.01 0.01 0.01 0.02 0.03 0.05 0.06 0.02 0.01 0.01 0.01 0.00 0.01 0.01 0.01 0.01 0.01 0.01 0.01
0.01 0.02 0.02 0.01 0.01 0.01 0.00 0.00 0.00 0.00 0.00 0.00 0.00 0.00 0.00 0.00 0.00 0.00 0.00 0.00 0.00 0.00 0.00 0.00 0.00 0.01 0.01 0.02 0.03 0.04 0.05 0.03 0.02 0.01 0.00 0.00 0.01 0.01 0.01 0.01 0.01 0.00 0.00
0.05 0.05 0.03 0.02 0.02 0.01 0.01 0.00 0.01 0.01 0.01 0.01 0.01 0.01 0.00 0.00 0.00 0.00 0.00 0.01 0.01 0.00 0.00 0.00 0.01 0.01 0.01 0.02 0.02 0.03 0.05 0.03 0.03 0.01 0.00 0.01 0.01 0.02 0.01 0.01 0.01 0.00 0.00
0.13 0.11 0.07 0.05 0.03 0.03 0.02 0.01 0.01 0.01 0.01 0.01 0.01 0.01 0.01 0.01 0.00 0.00 0.00 0.01 0.01 0.02 0.01 0.01 0.01 0.01 0.01 0.02 0.03 0.04 0.04 0.02 0.01 0.01 0.00 0.01 0.02 0.02 0.02 0.02 0.02 0.01 0.01
0.17 0.16 0.11 0.08 0.05 0.04 0.03 0.02 0.01 0.01 0.01 0.01 0.01 0.01 0.01 0.01 0.01 0.01 0.02 0.03 0.04 0.04 0.03 0.02 0.03 0.02 0.01 0.02 0.02 0.02 0.02 0.01 0.02 0.02 0.01 0.02 0.04 0.05 0.04 0.04 0.03 0.02 0.01
0.25 0.25 0.14 0.10 0.08 0.06 0.04 0.05 0.03 0.01 0.01 0.00 0.01 0.01 0.01 0.01 0.01 0.02 0.02 0.04 0.06 0.06 0.05 0.04 0.04 0.03 0.02 0.03 0.03 0.02 0.02 0.02 0.02 0.02 0.02 0.04 0.05 0.06 0.06 0.05 0.04 0.04 0.03
0.36 0.32 0.18 0.11 0.09 0.08 0.07 0.07 0.07 0.03 0.01 0.01 0.01 0.01 0.01 0.02 0.03 0.02 0.02 0.03 0.04 0.05 0.03 0.04 0.03 0.02 0.02 0.02 0.02 0.02 0.02 0.02 0.02 0.02 0.02 0.04 0.05 0.06 0.07 0.07 0.06 0.06 0.05
0.40 0.34 0.25 0.17 0.10 0.09 0.09 0.07 0.08 0.05 0.03 0.02 0.02 0.02 0.03 0.04 0.04 0.03 0.02 0.02 0.02 0.02 0.02 0.02 0.02 0.02 0.02 0.02 0.02 0.03 0.03 0.03 0.03 0.02 0.03 0.04 0.06 0.07 0.08 0.07 0.06 0.08 0.08
0.44 0.41 0.27 0.21 0.16 0.11 0.11 0.08 0.07 0.06 0.04 0.03 0.03 0.04 0.04 0.04 0.03 0.03 0.03 0.02 0.01 0.01 0.01 0.01 0.02 0.01 0.01 0.01 0.02 0.02 0.02 0.03 0.03 0.03 0.04 0.04 0.07 0.08 0.09 0.10 0.09 0.09 0.09
0.42 0.44 0.32 0.23 0.21 0.15 0.13 0.11 0.07 0.05 0.04 0.04 0.04 0.03 0.03 0.02 0.02 0.03 0.03 0.02 0.01 0.02 0.01 0.01 0.01 0.00 0.01 0.01 0.01 0.02 0.02 0.02 0.02 0.03 0.04 0.04 0.04 0.06 0.09 0.10 0.11 0.11 0.13
0.33 0.36 0.26 0.21 0.24 0.20 0.16 0.16 0.11 0.06 0.05 0.04 0.04 0.03 0.03 0.03 0.02 0.01 0.01 0.01 0.01 0.02 0.01 0.01 0.01 0.00 0.00 0.01 0.01 0.01 0.02 0.02 0.03 0.03 0.04 0.03 0.03 0.03 0.05 0.09 0.11 0.12 0.15
0.25 0.32 0.24 0.22 0.25 0.20 0.17 0.18 0.14 0.10 0.06 0.05 0.06 0.05 0.04 0.04 0.03 0.02 0.02 0.01 0.01 0.02 0.01 0.01 0.00 0.00 0.00 0.00 0.00 0.01 0.02 0.01 0.02 0.03 0.03 0.04 0.05 0.05 0.05 0.07 0.10 0.09 0.12
0.19 0.24 0.23 0.22 0.21 0.17 0.14 0.13 0.12 0.12 0.10 0.08 0.06 0.06 0.05 0.04 0.03 0.02 0.02 0.01 0.01 0.01 0.01 0.01 0.00 0.00 0.00 0.00 0.00 0.01 0.01 0.02 0.01 0.02 0.03 0.03 0.03 0.04 0.05 0.06 0.06 0.05 0.08
0.20 0.27 0.31 0.26 0.20 0.17 0.14 0.12 0.10 0.08 0.09 0.08 0.06 0.05 0.05 0.04 0.03 0.03 0.02 0.01 0.00 0.00 0.01 0.00 0.00 0.01 0.01 0.00 0.00 0.01 0.01 0.01 0.01 0.02 0.02 0.01 0.01 0.02 0.02 0.03 0.03 0.02 0.04
0.22 0.32 0.38 0.40 0.32 0.27 0.21 0.18 0.17 0.14 0.12 0.10 0.08 0.07 0.04 0.03 0.02 0.02 0.01 0.01 0.00 0.01 0.01 0.00 0.00 0.00 0.00 0.00 0.00 0.00 0.01 0.02 0.02 0.02 0.01 0.01 0.01 0.01 0.01 0.01 0.01 0.01 0.01
0.24 0.30 0.35 0.37 0.38 0.37 0.33 0.28 0.24 0.19 0.15 0.10 0.07 0.06 0.04 0.02 0.01 0.01 0.01 0.00 0.00 0.00 0.00 0.00 0.00 0.00 0.00 0.00 0.00 0.00 0.00 0.01 0.01 0.01 0.00 0.01 0.00 0.01 0.01 0.01 0.01 0.01 0.01
0.19 0.23 0.25 0.29 0.33 0.37 0.38 0.33 0.25 0.19 0.13 0.09 0.06 0.05 0.04 0.02 0.02 0.01 0.01 0.01 0.00 0.00 0.00 0.00 0.00 0.00 0.00 0.00 0.00 0.00 0.00 0.00 0.00 0.00 0.00 0.00 0.00 0.00 0.00 0.01 0.01 0.01 0.00
0.13 0.16 0.16 0.20 0.24 0.26 0.32 0.38 0.30 0.22 0.16 0.12 0.09 0.07 0.05 0.03 0.02 0.03 0.02 0.01 0.01 0.01 0.00 0.00 0.00 0.00 0.00 0.00 0.00 0.00 0.00 0.00 0.00 0.00 0.00 0.00 0.00 0.00 0.00 0.00 0.00 0.00 0.00
0.08 0.09 0.10 0.14 0.18 0.18 0.20 0.24 0.28 0.23 0.17 0.13 0.09 0.06 0.06 0.06 0.04 0.04 0.03 0.02 0.01 0.01 0.01 0.00 0.00 0.00 0.00 0.00 0.00 0.00 0.00 0.00 0.00 0.00 0.00 0.00 0.00 0.00 0.00 0.00 0.00 0.00 0.00
MSLP
1012.06 1011.83 1011.77 1011.90 1012.15 1012.47 1012.79 1013.05 1013.21 1013.28 1013.28 1013.26 1013.26 1013.34 1013.51 1013.77 1014.09 1014.44 1014.77 1015.03 1015.22 1015.34 1015.39 1015.42 1015.45 1015.50 1015.58 1015.69 1015.82 1015.96 1016.08 1016.20 1016.30 1016.41 1016.53 1016.67 1016.85 1017.05 1017.25 1017.45 1017.63 1017.78 1017.89
1011.61 1011.51 1011.59 1011.83 1012.19 1012.59 1012.98 1013.28 1013.48 1013.58 1013.61 1013.61 1013.64 1013.74 1013.93 1014.19 1014.51 1014.84 1015.14 1015.37 1015.54 1015.64 1015.69 1015.71 1015.74 1015.80 1015.88 1015.98 1016.10 1016.22 1016.33 1016.43 1016.53 1016.64 1016.76 1016.91 1017.09 1017.29 1017.50 1017.70 1017.89 1018.04 1018.18
1011.17 1011.20 1011.40 1011.75 1012.20 1012.68 1013.13 1013.49 1013.74 1013.89 1013.95 1014.00 1014.06 1014.19 1014.38 1014.63 1014.91 1015.20 1015.45 1015.65 1015.78 1015.85 1015.89 1015.92 1015.96 1016.02 1016.11 1016.22 1016.33 1016.44 1016.55 1016.64 1016.74 1016.85 1016.98 1017.13 1017.31 1017.51 1017.71 1017.91 1018.10 1018.27 1018.42
1010.81 1010.95 1011.26 1011.70 1012.23 1012.77 1013.27 1013.68 1013.98 1014.17 1014.28 1014.37 1014.47 1014.61 1014.80 1015.03 1015.27 1015.50 1015.70 1015.84 1015.94 1015.99 1016.03 1016.07 1016.12 1016.20 1016.30 1016.41 1016.52 1016.64 1016.75 1016.85 1016.96 1017.09 1017.23 1017.39 1017.56 1017.75 1017.94 1018.12 1018.31 1018.48 1018.66
1010.57 1010.81 1011.20 1011.71 1012.28 1012.87 1013.40 1013.84 1014.17 1014.40 1014.56 1014.69 1014.82 1014.97 1015.15 1015.36 1015.56 1015.74 1015.88 1015.99 1016.05 1016.10 1016.14 1016.20 1016.27 1016.36 1016.47 1016.59 1016.71 1016.83 1016.96 1017.09 1017.22 1017.37 1017.53 1017.70 1017.87 1018.04 1018.21 1018.37 1018.54 1018.72 1018.92
1010.49 1010.80 1011.24 1011.79 1012.39 1012.98 1013.52 1013.96 1014.31 1014.56 1014.75 1014.92 1015.08 1015.25 1015.43 1015.62 1015.79 1015.93 1016.04 1016.12 1016.17 1016.22 1016.28 1016.35 1016.45 1016.56 1016.68 1016.80 1016.93 1017.06 1017.20 1017.36 1017.53 1017.72 1017.91 1018.09 1018.26 1018.41 1018.55 1018.68 1018.83 1018.99 1019.20
1010.55 1010.90 1011.37 1011.93 1012.53 1013.11 1013.62 1014.05 1014.39 1014.66 1014.87 1015.07 1015.26 1015.45 1015.65 1015.83 1015.99 1016.12 1016.21 1016.28 1016.34 1016.40 1016.48 1016.58 1016.69 1016.81 1016.93 1017.06 1017.19 1017.33 1017.49 1017.67 1017.88 1018.11 1018.33 1018.53 1018.70 1018.84 1018.95 1019.04 1019.15 1019.29 1019.48
1010.70 1011.08 1011.56 1012.12 1012.69 1013.24 1013.72 1014.11 1014.44 1014.70 1014.94 1015.16 1015.39 1015.62 1015.84 1016.04 1016.20 1016.33 1016.42 1016.50 1016.57 1016.65 1016.75 1016.86 1016.99 1017.11 1017.23 1017.35 1017.47 1017.61 1017.78 1017.99 1018.23 1018.49 1018.75 1018.98 1019.16 1019.28 1019.36 1019.42 1019.48 1019.59 1019.76
1010.89 1011.28 1011.77 1012.32 1012.86 1013.36 1013.80 1014.16 1014.46 1014.72 1014.97 1015.23 1015.50 1015.77 1016.03 1016.26 1016.45 1016.59 1016.69 1016.78 1016.86 1016.96 1017.07 1017.20 1017.33 1017.45 1017.55 1017.66 1017.76 1017.89 1018.06 1018.28 1018.55 1018.84 1019.12 1019.37 1019.56 1019.68 1019.74 1019.76 1019.79 1019.85 1019.99
1011.05 1011.47 1011.97 1012.51 1013.02 1013.48 1013.87 1014.20 1014.48 1014.74 1015.02 1015.31 1015.63 1015.95 1016.26 1016.52 1016.73 1016.88 1016.99 1017.09 1017.18 1017.28 1017.40 1017.52 1017.65 1017.76 1017.86 1017.94 1018.03 1018.14 1018.30 1018.52 1018.79 1019.09 1019.39 1019.66 1019.87 1019.99 1020.04 1020.05 1020.04 1020.07 1020.16
1011.16 1011.62 1012.14 1012.67 1013.16 1013.58 1013.94 1014.24 1014.50 1014.78 1015.08 1015.42 1015.78 1016.15 1016.50 1016.80 1017.02 1017.19 1017.30 1017.39 1017.47 1017.57 1017.68 1017.81 1017.93 1018.03 1018.12 1018.18 1018.25 1018.35 1018.49 1018.69 1018.95 1019.25 1019.55 1019.83 1020.05 1020.18 1020.24 1020.24 1020.23 1020.23 1020.30
1011.22 1011.72 1012.27 1012.79 1013.27 1013.67 1014.00 1014.27 1014.54 1014.82 1015.15 1015.53 1015.95 1016.36 1016.74 1017.07 1017.31 1017.48 1017.58 1017.65 1017.72 1017.80 1017.90 1018.02 1018.13 1018.24 1018.32 1018.38 1018.44 1018.51 1018.63 1018.80 1019.04 1019.32 1019.61 1019.88 1020.11 1020.26 1020.34 1020.36 1020.35 1020.35 1020.40
1011.23 1011.79 1012.36 1012.89 1013.35 1013.73 1014.04 1014.31 1014.57 1014.87 1015.23 1015.64 1016.09 1016.54 1016.95 1017.30 1017.55 1017.71 1017.80 1017.86 1017.91 1017.97 1018.05 1018.16 1018.28 1018.39 1018.48 1018.55 1018.61 1018.67 1018.76 1018.90 1019.10 1019.34 1019.60 1019.86 1020.09 1020.25 1020.36 1020.41 1020.44 1020.46 1020.50
1011.23 1011.83 1012.42 1012.95 1013.40 1013.76 1014.06 1014.32 1014.59 1014.91 1015.28 1015.72 1016.20 1016.67 1017.10 1017.45 1017.71 1017.88 1017.96 1018.00 1018.04 1018.08 1018.16 1018.27 1018.40 1018.53 1018.64 1018.72 1018.79 1018.86 1018.93 1019.03 1019.18 1019.36 1019.58 1019.81 1020.02 1020.20 1020.34 1020.43 1020.50 1020.56 1020.62
1011.23 1011.86 1012.45 1012.98 1013.41 1013.76 1014.05 1014.31 1014.59 1014.91 1015.30 1015.75 1016.24 1016.72 1017.16 1017.53 1017.79 1017.97 1018.06 1018.11 1018.14 1018.19 1018.27 1018.38 1018.53 1018.68 1018.82 1018.94 1019.03 1019.09 1019.15 1019.22 1019.31 1019.44 1019.60 1019.77 1019.96 1020.14 1020.30 1020.44 1020.56 1020.66 1020.75
1011.24 1011.87 1012.45 1012.95 1013.37 1013.71 1014.00 1014.27 1014.56 1014.89 1015.29 1015.74 1016.22 1016.70 1017.14 1017.51 1017.80 1018.00 1018.12 1018.19 1018.25 1018.31 1018.41 1018.54 1018.70 1018.88 1019.05 1019.20 1019.32 1019.40 1019.45 1019.49 1019.53 1019.59 1019.68 1019.80 1019.95 1020.11 1020.28 1020.45 1020.60 1020.74 1020.87
1011.25 1011.84 1012.38 1012.86 1013.26 1013.60 1013.91 1014.21 1014.52 1014.86 1015.25 1015.69 1016.15 1016.61 1017.05 1017.43 1017.75 1017.99 1018.16 1018.28 1018.38 1018.48 1018.60 1018.76 1018.94 1019.14 1019.34 1019.52 1019.66 1019.76 1019.81 1019.83 1019.83 1019.83 1019.85 1019.90 1019.99 1020.12 1020.27 1020.45 1020.63 1020.80 1020.95
1011.21 1011.74 1012.23 1012.67 1013.07 1013.44 1013.79 1014.13 1014.47 1014.84 1015.23 1015.64 1016.07 1016.50 1016.92 1017.32 1017.66 1017.96 1018.19 1018.39 1018.55 1018.70 1018.85 1019.02 1019.22 1019.43 1019.64 1019.84 1020.01 1020.13 1020.20 1020.22 1020.19 1020.14 1020.10 1020.07 1020.10 1020.17 1020.29 1020.45 1020.63 1020.81 1020.98
1011.09 1011.54 1011.97 1012.39 1012.80 1013.22 1013.64 1014.05 1014.45 1014.85 1015.23 1015.62 1016.01 1016.40 1016.80 1017.19 1017.57 1017.92 1018.23 1018.50 1018.74 1018.94 1019.13 1019.31 1019.51 1019.72 1019.94 1020.15 1020.34 1020.49 1020.58 1020.60 1020.57 1020.49 1020.40 1020.31 1020.26 1020.27 1020.33 1020.45 1020.60 1020.77 1020.93
1010.85 1011.22 1011.59 1011.99 1012.45 1012.94 1013.46 1013.97 1014.46 1014.90 1015.30 1015.66 1016.00 1016.34 1016.70 1017.08 1017.48 1017.88 1018.27 1018.62 1018.92 1019.18 1019.40 1019.59 1019.78 1019.97 1020.18 1020.40 1020.60 1020.78 1020.91 1020.96 1020.94 1020.86 1020.74 1020.60 1020.49 1020.42 1020.41 1020.46 1020.56 1020.70 1020.83
1010.51 1010.77 1011.09 1011.51 1012.03 1012.63 1013.27 1013.91 1014.49 1015.00 1015.42 1015.76 1016.05 1016.34 1016.65 1017.01 1017.41 1017.85 1018.30 1018.72 1019.09 1019.39 1019.63 1019.82 1019.99 1020.16 1020.35 1020.57 1020.79 1021.00 1021.17 1021.27 1021.29 1021.23 1021.10 1020.94 1020.76 1020.62 1020.53 1020.51 1020.54 1020.62 1020.72
1010.06 1010.24 1010.53 1010.97 1011.56 1012.28 1013.06 1013.84 1014.54 1015.13 1015.58 1015.91 1016.16 1016.39 1016.65 1016.97 1017.37 1017.83 1018.32 1018.79 1019.21 1019.55 1019.81 1019.99 1020.14 1020.29 1020.45 1020.66 1020.89 1021.14 1021.36 1021.52 1021.61 1021.58 1021.47 1021.30 1021.09 1020.88 1020.72 1020.61 1020.57 1020.58 1020.63
1009.58 1009.69 1009.95 1010.42 1011.09 1011.93 1012.85 1013.76 1014.58 1015.25 1015.74 1016.07 1016.29 1016.47 1016.68 1016.97 1017.35 1017.81 1018.32 1018.83 1019.29 1019.65 1019.92 1020.10 1020.23 1020.34 1020.49 1020.69 1020.93 1021.21 1021.49 1021.72 1021.87 1021.91 1021.83 1021.67 1021.44 1021.20 1020.97 1020.78 1020.67 1020.61 1020.61
1009.14 1009.20 1009.44 1009.93 1010.67 1011.60 1012.63 1013.66 1014.59 1015.34 1015.87 1016.21 1016.42 1016.57 1016.73 1016.98 1017.34 1017.80 1018.33 1018.85 1019.33 1019.71 1019.98 1020.16 1020.27 1020.36 1020.49 1020.68 1020.93 1021.24 1021.57 1021.86 1022.07 1022.18 1022.15 1022.02 1021.80 1021.53 1021.26 1021.02 1020.84 1020.73 1020.67
1008.82 1008.84 1009.07 1009.57 1010.34 1011.32 1012.43 1013.53 1014.54 1015.35 1015.93 1016.29 1016.50 1016.63 1016.78 1017.01 1017.35 1017.80 1018.32 1018.86 1019.34 1019.73 1020.01 1020.18 1020.28 1020.36 1020.47 1020.66 1020.92 1021.24 1021.60 1021.94 1022.22 1022.38 1022.41 1022.31 1022.12 1021.85 1021.57 1021.30 1021.07 1020.90 1020.80
1008.68 1008.69 1008.90 1009.38 1010.14 1011.13 1012.25 1013.39 1014.43 1015.28 1015.89 1016.29 1016.51 1016.65 1016.80 1017.02 1017.35 1017.79 1018.31 1018.84 1019.33 1019.73 1020.01 1020.19 1020.28 1020.36 1020.46 1020.63 1020.89 1021.22 1021.60 1021.96 1022.28 1022.48 1022.56 1022.52 1022.36 1022.12 1021.84 1021.56 1021.32 1021.12 1020.98
Thickness
5784 5785 5783 5781 5780 5778 5777 5776 5775 5774 5774 5773 5773 5772 5771 5770 5768 5767 5766 5764 5763 5762 5760 5759 5759 5758 5757 5756 5755 5754 5753 5751 5750 5749 5747 5746 5745 5743 5742 5740 5739 5737 5736
5791 5786 5783 5781 5779 5777 5776 5774 5774 5773 5772 5771 5771 5770 5769 5768 5767 5765 5764 5763 5762 5760 5759 5757 5756 5755 5755 5754 5753 5752 5751 5750 5748 5747 5746 5744 5743 5741 5740 5739 5737 5736 5734
5791 5786 5782 5780 5778 5776 5774 5773 5772 5771 5770 5769 5769 5768 5767 5766 5765 5764 5763 5761 5760 5758 5757 5755 5754 5753 5752 5751 5750 5749 5748 5747 5746 5745 5744 5742 5741 5740 5739 5737 5736 5734 5733
5791 5786 5782 5779 5777 5775 5773 5772 5770 5769 5769 5768 5767 5766 5765 5764 5763 5762 5761 5759 5758 5756 5755 5753 5752 5751 5750 5749 5748 5747 5746 5745 5744 5743 5742 5741 5740 5738 5737 5736 5734 5733 5731
5788 5784 5781 5778 5776 5774 5772 5770 5769 5768 5767 5766 5765 5764 5763 5762 5761 5760 5758 5757 5756 5754 5752 5751 5750 5749 5748 5747 5746 5745 5744 5743 5742 5741 5740 5739 5738 5736 5735 5734 5732 5731 5730
5784 5782 5779 5776 5774 5772 5770 5769 5767 5766 5765 5764 5763 5762 5761 5760 5759 5757 5756 5755 5753 5752 5750 5749 5747 5746 5746 5745 5744 5743 5743 5741 5740 5739 5737 5736 5736 5735 5733 5732 5731 5729 5728
5781 5779 5777 5775 5772 5771 5769 5767 5766 5764 5763 5762 5761 5759 5758 5757 5756 5755 5753 5752 5751 5749 5748 5746 5745 5744 5743 5743 5742 5742 5741 5739 5738 5736 5735 5734 5733 5733 5732 5730 5729 5728 5727
5780 5777 5774 5772 5770 5768 5767 5765 5764 5763 5761 5760 5759 5757 5756 5755 5753 5752 5751 5750 5748 5747 5746 5744 5743 5742 5741 5740 5740 5740 5739 5737 5735 5734 5733 5732 5731 5730 5729 5728 5727 5726 5725
5776 5774 5771 5770 5768 5766 5764 5763 5762 5761 5759 5758 5757 5755 5753 5752 5751 5749 5748 5747 5745 5744 5743 5741 5740 5739 5738 5738 5738 5737 5736 5735 5733 5732 5731 5729 5729 5728 5727 5726 5725 5724 5723
5771 5769 5768 5766 5765 5764 5762 5761 5760 5758 5757 5756 5754 5753 5751 5750 5748 5747 5745 5744 5743 5742 5740 5739 5738 5737 5736 5735 5735 5735 5734 5733 5731 5730 5729 5728 5727 5726 5725 5724 5723 5722 5722
5764 5764 5763 5762 5762 5761 5760 5759 5758 5757 5755 5754 5753 5751 5750 5748 5746 5745 5743 5742 5740 5739 5738 5737 5736 5735 5734 5733 5733 5732 5731 5730 5729 5728 5727 5726 5725 5724 5723 5722 5721 5721 5720
5759 5759 5759 5759 5758 5757 5756 5756 5755 5754 5753 5752 5750 5749 5747 5745 5744 5742 5741 5740 5738 5737 5736 5735 5734 5733 5732 5731 5730 5730 5729 5728 5727 5726 5725 5724 5723 5723 5722 5721 5720 5719 5718
5759 5757 5757 5756 5754 5754 5754 5753 5752 5751 5750 5749 5748 5747 5745 5743 5742 5740 5739 5738 5737 5736 5735 5734 5732 5732 5731 5730 5729 5728 5727 5726 5726 5725 5724 5723 5722 5721 5721 5720 5718 5717 5717
5755 5754 5754 5753 5751 5751 5751 5750 5749 5749 5748 5746 5746 5744 5743 5741 5740 5739 5737 5736 5735 5734 5733 5732 5731 5730 5729 5728 5727 5727 5726 5725 5724 5724 5723 5722 5721 5721 5720 5718 5717 5716 5715
5750 5748 5749 5750 5749 5748 5748 5747 5746 5746 5745 5744 5743 5742 5741 5739 5738 5737 5736 5734 5733 5732 5731 5730 5729 5728 5728 5727 5726 5725 5724 5724 5723 5723 5722 5721 5721 5720 5719 5717 5716 5715 5714
5746 5746 5745 5745 5745 5745 5745 5745 5744 5744 5743 5742 5741 5741 5740 5738 5737 5736 5734 5733 5731 5730 5729 5729 5728 5727 5726 5725 5724 5724 5723 5723 5722 5721 5721 5720 5719 5719 5718 5716 5715 5714 5713
5744 5743 5741 5742 5742 5743 5742 5742 5742 5742 5741 5740 5739 5739 5738 5737 5736 5734 5733 5732 5730 5729 5728 5727 5726 5725 5724 5723 5722 5722 5722 5721 5720 5720 5720 5719 5718 5718 5717 5715 5714 5713 5712
5742 5740 5740 5741 5740 5740 5739 5739 5739 5739 5739 5738 5737 5737 5736 5736 5735 5733 5732 5730 5729 5728 5727 5725 5724 5722 5721 5720 5719 5720 5720 5720 5719 5719 5719 5718 5717 5717 5716 5715 5714 5713 5712
5742 5740 5738 5739 5739 5738 5737 5736 5736 5736 5736 5736 5735 5735 5735 5734 5733 5732 5730 5729 5727 5726 5725 5724 5721 5720 5719 5718 5718 5718 5718 5718 5718 5718 5718 5717 5716 5716 5715 5714 5713 5712 5712
5740 5738 5736 5736 5736 5736 5734 5733 5732 5732 5733 5733 5734 5734 5733 5733 5732 5731 5729 5727 5726 5724 5723 5722 5720 5718 5717 5716 5717 5716 5716 5717 5717 5717 5717 5716 5715 5715 5714 5713 5712 5712 5711
5736 5734 5732 5732 5732 5732 5730 5728 5728 5728 5730 5730 5732 5732 5731 5731 5730 5729 5728 5726 5725 5723 5722 5720 5718 5717 5715 5715 5713 5712 5713 5715 5715 5715 5715 5715 5714 5714 5713 5712 5712 5711 5710
5733 5732 5730 5729 5728 5729 5730 5729 5728 5729 5728 5729 5729 5729 5729 5729 5729 5728 5727 5725 5724 5722 5720 5719 5718 5715 5714 5713 5712 5708 5706 5708 5711 5713 5713 5713 5713 5712 5712 5711 5711 5710 5709
5732 5730 5730 5727 5726 5727 5727 5726 5725 5725 5725 5724 5725 5727 5727 5728 5728 5728 5726 5724 5723 5722 5720 5719 5718 5716 5713 5711 5712 5710 5705 5702 5704 5708 5710 5710 5711 5710 5710 5710 5709 5708 5707
5735 5733 5730 5727 5726 5727 5727 5726 5725 5723 5722 5724 5725 5726 5726 5727 5727 5727 5725 5724 5723 5722 5720 5719 5718 5717 5715 5711 5710 5710 5709 5708 5704 5702 5705 5707 5708 5708 5708 5708 5707 5707 5706
5736 5733 5731 5729 5727 5727 5728 5727 5725 5724 5725 5724 5724 5724 5724 5724 5725 5725 5725 5724 5722 5721 5720 5719 5718 5717 5716 5713 5711 5709 5707 5705 5705 5702 5699 5701 5704 5705 5705 5705 5705 5705 5704
5735 5733 5731 5729 5728 5728 5727 5727 5726 5725 5724 5723 5721 5721 5721 5722 5723 5724 5724 5723 5722 5720 5719 5719 5718 5717 5715 5714 5712 5711 5709 5706 5704 5702 5698 5697 5698 5700 5702 5702 5703 5703 5702